GFSNIL_prec_precacc12_216.txt.gz
Total_Precipitation_Accumulation
0.80 0.48 0.32 0.24 0.16 0.05 0.00 0.00 0.00 0.00 0.00 0.00 0.00 0.00 0.00 0.00 0.00 0.00 0.00 0.00 0.00 0.00
1.31 1.18 0.97 0.73 0.51 0.30 0.14 0.06 0.04 0.02 0.01 0.00 0.00 0.00 0.00 0.00 0.00 0.00 0.00 0.00 0.00 0.00
0.64 0.67 0.66 0.49 0.37 0.28 0.23 0.16 0.11 0.08 0.05 0.03 0.01 0.01 0.00 0.00 0.00 0.00 0.00 0.00 0.00 0.00
0.19 0.26 0.31 0.32 0.26 0.18 0.14 0.12 0.10 0.07 0.05 0.03 0.02 0.02 0.01 0.00 0.00 0.00 0.00 0.00 0.00 0.00
0.24 0.27 0.28 0.25 0.24 0.19 0.13 0.08 0.04 0.03 0.03 0.02 0.02 0.01 0.01 0.00 0.00 0.00 0.00 0.00 0.00 0.00
0.31 0.34 0.31 0.23 0.17 0.17 0.16 0.12 0.07 0.03 0.03 0.02 0.01 0.01 0.00 0.00 0.00 0.00 0.00 0.00 0.00 0.00
0.44 0.31 0.30 0.28 0.21 0.14 0.12 0.11 0.10 0.07 0.03 0.01 0.00 0.00 0.00 0.00 0.00 0.00 0.00 0.00 0.00 0.00
0.57 0.43 0.28 0.24 0.27 0.23 0.17 0.12 0.05 0.01 0.00 0.00 0.00 0.00 0.00 0.00 0.00 0.00 0.00 0.00 0.00 0.00
0.61 0.50 0.43 0.33 0.27 0.24 0.16 0.10 0.05 0.03 0.01 0.00 0.00 0.00 0.00 0.00 0.00 0.00 0.00 0.00 0.00 0.00
0.77 0.53 0.39 0.37 0.29 0.25 0.18 0.14 0.11 0.09 0.06 0.02 0.01 0.00 0.00 0.00 0.00 0.00 0.00 0.00 0.00 0.00
0.67 0.63 0.44 0.34 0.34 0.31 0.27 0.23 0.18 0.12 0.06 0.03 0.01 0.00 0.00 0.00 0.00 0.00 0.00 0.00 0.00 0.00
0.49 0.47 0.45 0.37 0.34 0.30 0.24 0.17 0.10 0.05 0.03 0.02 0.00 0.00 0.00 0.00 0.00 0.00 0.00 0.00 0.00 0.00
0.36 0.34 0.32 0.30 0.27 0.18 0.10 0.06 0.03 0.02 0.01 0.00 0.00 0.00 0.00 0.00 0.00 0.00 0.00 0.00 0.00 0.00
0.20 0.16 0.16 0.12 0.08 0.05 0.02 0.01 0.00 0.00 0.00 0.00 0.00 0.00 0.00 0.00 0.00 0.00 0.00 0.00 0.00 0.00

GFSNIL_prec_precacc12_219.txt.gz
Total_Precipitation_Accumulation
0.30 0.10 0.06 0.08 0.10 0.04 0.00 0.00 0.00 0.00 0.00 0.00 0.00 0.00 0.00 0.00 0.00 0.00 0.00 0.00 0.00 0.00
0.55 0.56 0.46 0.43 0.38 0.28 0.14 0.06 0.04 0.02 0.01 0.00 0.00 0.00 0.00 0.00 0.00 0.00 0.00 0.00 0.00 0.00
0.40 0.48 0.56 0.43 0.34 0.28 0.23 0.16 0.11 0.08 0.05 0.03 0.01 0.01 0.00 0.00 0.00 0.00 0.00 0.00 0.00 0.00
0.17 0.26 0.30 0.32 0.26 0.18 0.14 0.12 0.10 0.07 0.05 0.03 0.02 0.02 0.01 0.00 0.00 0.00 0.00 0.00 0.00 0.00
0.21 0.26 0.28 0.24 0.24 0.19 0.13 0.08 0.04 0.03 0.03 0.02 0.02 0.01 0.01 0.01 0.00 0.00 0.00 0.00 0.00 0.00
0.27 0.33 0.32 0.23 0.17 0.17 0.16 0.12 0.07 0.03 0.03 0.03 0.02 0.01 0.00 0.00 0.00 0.00 0.00 0.00 0.00 0.00
0.36 0.31 0.36 0.35 0.24 0.15 0.13 0.13 0.11 0.09 0.06 0.04 0.02 0.01 0.00 0.00 0.00 0.00 0.00 0.00 0.00 0.00
0.59 0.53 0.39 0.43 0.49 0.33 0.21 0.16 0.11 0.07 0.06 0.05 0.03 0.02 0.00 0.00 0.00 0.00 0.00 0.00 0.00 0.00
0.69 0.65 0.55 0.47 0.47 0.47 0.35 0.23 0.16 0.11 0.08 0.05 0.03 0.02 0.00 0.00 0.00 0.00 0.00 0.00 0.00 0.00
0.83 0.72 0.63 0.51 0.47 0.44 0.39 0.30 0.21 0.16 0.11 0.07 0.06 0.05 0.03 0.02 0.01 0.00 0.00 0.00 0.00 0.00
0.75 0.79 0.67 0.59 0.53 0.49 0.42 0.33 0.27 0.23 0.19 0.17 0.13 0.08 0.03 0.01 0.01 0.01 0.00 0.00 0.00 0.00
0.70 0.69 0.73 0.63 0.60 0.49 0.41 0.35 0.29 0.25 0.21 0.14 0.09 0.06 0.04 0.03 0.02 0.01 0.00 0.00 0.00 0.00
0.60 0.64 0.67 0.66 0.57 0.51 0.40 0.36 0.29 0.21 0.13 0.07 0.05 0.05 0.03 0.01 0.00 0.00 0.00 0.00 0.00 0.00
0.49 0.50 0.54 0.52 0.48 0.45 0.37 0.26 0.18 0.11 0.07 0.05 0.03 0.02 0.01 0.00 0.00 0.00 0.00 0.00 0.00 0.00

GFSNIL_prec_precacc12_222.txt.gz
Total_Precipitation_Accumulation
0.07 0.03 0.01 0.00 0.00 0.00 0.00 0.00 0.00 0.00 0.00 0.00 0.00 0.00 0.00 0.00 0.00 0.00 0.00 0.00 0.00 0.00
0.04 0.09 0.05 0.01 0.01 0.02 0.01 0.00 0.00 0.00 0.01 0.00 0.00 0.00 0.00 0.00 0.00 0.00 0.00 0.00 0.00 0.00
0.04 0.04 0.09 0.10 0.07 0.11 0.14 0.11 0.09 0.07 0.05 0.03 0.01 0.01 0.00 0.00 0.00 0.00 0.00 0.00 0.00 0.00
0.10 0.11 0.14 0.16 0.18 0.16 0.13 0.11 0.10 0.07 0.05 0.03 0.02 0.02 0.01 0.00 0.00 0.00 0.00 0.00 0.00 0.00
0.15 0.18 0.18 0.15 0.21 0.19 0.13 0.08 0.04 0.03 0.03 0.02 0.02 0.01 0.01 0.01 0.00 0.00 0.00 0.00 0.00 0.00
0.12 0.20 0.24 0.18 0.15 0.17 0.16 0.12 0.07 0.03 0.03 0.03 0.02 0.01 0.00 0.00 0.00 0.00 0.00 0.00 0.00 0.00
0.12 0.16 0.29 0.39 0.30 0.16 0.13 0.13 0.12 0.09 0.06 0.04 0.02 0.01 0.00 0.00 0.00 0.00 0.00 0.00 0.00 0.00
0.44 0.39 0.33 0.47 0.64 0.48 0.23 0.17 0.12 0.08 0.07 0.05 0.03 0.02 0.01 0.00 0.00 0.00 0.00 0.00 0.00 0.00
0.60 0.55 0.47 0.42 0.52 0.66 0.55 0.30 0.19 0.14 0.09 0.05 0.04 0.03 0.02 0.01 0.01 0.00 0.00 0.00 0.00 0.00
0.76 0.69 0.62 0.53 0.52 0.55 0.60 0.52 0.34 0.22 0.14 0.10 0.07 0.07 0.04 0.03 0.02 0.01 0.01 0.01 0.01 0.01
0.76 0.79 0.68 0.63 0.62 0.63 0.59 0.58 0.50 0.40 0.28 0.21 0.17 0.14 0.09 0.05 0.03 0.02 0.03 0.02 0.02 0.02
0.80 0.77 0.78 0.69 0.69 0.60 0.58 0.56 0.48 0.40 0.34 0.30 0.25 0.18 0.12 0.07 0.06 0.05 0.03 0.02 0.01 0.01
0.69 0.74 0.77 0.76 0.72 0.69 0.55 0.50 0.45 0.41 0.36 0.30 0.24 0.18 0.10 0.06 0.04 0.04 0.03 0.02 0.01 0.00
0.59 0.59 0.66 0.75 0.74 0.72 0.64 0.51 0.47 0.41 0.35 0.24 0.12 0.09 0.07 0.05 0.03 0.03 0.02 0.01 0.00 0.00

GFSNIL_prec_precacc12_225.txt.gz
Total_Precipitation_Accumulation
0.01 0.00 0.00 0.00 0.00 0.00 0.00 0.00 0.00 0.00 0.00 0.00 0.00 0.00 0.00 0.00 0.00 0.00 0.00 0.00 0.00 0.00
0.04 0.00 0.00 0.00 0.00 0.00 0.00 0.00 0.00 0.00 0.00 0.00 0.00 0.00 0.00 0.00 0.00 0.00 0.00 0.00 0.00 0.00
0.10 0.01 0.00 0.00 0.00 0.00 0.00 0.00 0.00 0.00 0.00 0.00 0.00 0.00 0.00 0.00 0.00 0.00 0.00 0.00 0.00 0.00
0.16 0.08 0.03 0.00 0.00 0.00 0.00 0.00 0.00 0.00 0.01 0.01 0.02 0.02 0.01 0.00 0.00 0.00 0.00 0.00 0.00 0.00
0.15 0.21 0.14 0.06 0.01 0.02 0.03 0.03 0.03 0.02 0.03 0.02 0.02 0.01 0.01 0.01 0.00 0.00 0.00 0.00 0.00 0.00
0.12 0.19 0.22 0.15 0.07 0.08 0.11 0.11 0.07 0.03 0.03 0.03 0.02 0.01 0.00 0.00 0.00 0.00 0.00 0.00 0.00 0.00
0.09 0.11 0.20 0.29 0.25 0.14 0.11 0.12 0.13 0.10 0.06 0.04 0.02 0.01 0.00 0.00 0.00 0.00 0.00 0.00 0.00 0.00
0.21 0.17 0.18 0.38 0.64 0.63 0.31 0.17 0.12 0.09 0.08 0.05 0.03 0.02 0.01 0.00 0.00 0.00 0.00 0.00 0.00 0.00
0.30 0.30 0.28 0.29 0.44 0.69 0.72 0.44 0.22 0.16 0.11 0.06 0.04 0.03 0.02 0.01 0.01 0.00 0.00 0.00 0.00 0.00
0.47 0.54 0.48 0.38 0.36 0.43 0.59 0.64 0.50 0.30 0.19 0.12 0.08 0.07 0.05 0.03 0.02 0.01 0.01 0.01 0.01 0.01
0.50 0.57 0.56 0.55 0.55 0.60 0.59 0.60 0.61 0.55 0.39 0.29 0.21 0.17 0.11 0.07 0.04 0.03 0.03 0.03 0.02 0.02
0.71 0.69 0.71 0.66 0.68 0.61 0.61 0.60 0.56 0.51 0.44 0.37 0.30 0.24 0.16 0.11 0.10 0.09 0.08 0.05 0.02 0.01
0.73 0.86 0.90 0.87 0.78 0.72 0.57 0.53 0.50 0.52 0.48 0.39 0.34 0.32 0.23 0.16 0.12 0.10 0.07 0.04 0.03 0.02
0.60 0.60 0.68 0.80 0.80 0.81 0.74 0.62 0.57 0.50 0.49 0.43 0.33 0.31 0.23 0.16 0.12 0.07 0.04 0.03 0.02 0.01

GFSNIL_prec_precacc12_228.txt.gz
Total_Precipitation_Accumulation
0.04 0.01 0.01 0.00 0.00 0.05 0.03 0.01 0.00 0.00 0.00 0.00 0.00 0.00 0.00 0.00 0.00 0.00 0.00 0.00 0.00 0.00
0.15 0.03 0.01 0.00 0.00 0.02 0.04 0.01 0.00 0.00 0.00 0.00 0.00 0.00 0.00 0.00 0.00 0.00 0.00 0.00 0.00 0.00
0.16 0.20 0.05 0.00 0.00 0.00 0.02 0.03 0.01 0.00 0.00 0.00 0.00 0.00 0.00 0.00 0.00 0.00 0.00 0.00 0.00 0.00
0.17 0.25 0.16 0.02 0.00 0.00 0.01 0.03 0.01 0.00 0.00 0.00 0.00 0.00 0.00 0.00 0.00 0.00 0.00 0.00 0.00 0.00
0.10 0.38 0.29 0.11 0.03 0.00 0.01 0.01 0.00 0.00 0.00 0.00 0.00 0.00 0.00 0.00 0.00 0.00 0.00 0.00 0.00 0.00
0.07 0.12 0.34 0.20 0.20 0.03 0.03 0.04 0.01 0.00 0.00 0.00 0.01 0.00 0.00 0.00 0.00 0.00 0.00 0.00 0.00 0.00
0.07 0.08 0.13 0.24 0.28 0.22 0.09 0.12 0.07 0.06 0.04 0.03 0.02 0.01 0.00 0.00 0.00 0.00 0.00 0.00 0.00 0.00
0.11 0.15 0.16 0.31 0.47 0.51 0.26 0.13 0.24 0.16 0.09 0.06 0.03 0.02 0.01 0.00 0.00 0.00 0.00 0.00 0.00 0.00
0.13 0.19 0.16 0.18 0.29 0.54 0.73 0.50 0.25 0.26 0.19 0.07 0.04 0.03 0.02 0.01 0.01 0.00 0.00 0.00 0.00 0.00
0.10 0.23 0.27 0.18 0.24 0.32 0.48 0.58 0.49 0.26 0.20 0.17 0.10 0.08 0.05 0.03 0.02 0.01 0.01 0.01 0.01 0.01
0.15 0.24 0.29 0.33 0.31 0.35 0.35 0.39 0.46 0.47 0.37 0.28 0.21 0.18 0.12 0.07 0.04 0.03 0.03 0.03 0.02 0.02
0.38 0.39 0.44 0.41 0.39 0.33 0.38 0.46 0.48 0.48 0.45 0.40 0.33 0.25 0.16 0.11 0.10 0.09 0.08 0.05 0.03 0.03
0.42 0.55 0.62 0.66 0.64 0.62 0.52 0.50 0.49 0.52 0.50 0.43 0.37 0.34 0.25 0.16 0.13 0.11 0.09 0.07 0.05 0.04
0.40 0.45 0.53 0.70 0.78 0.84 0.78 0.66 0.60 0.55 0.55 0.47 0.36 0.33 0.27 0.20 0.17 0.16 0.13 0.10 0.07 0.03

GFSNIL_prec_precacc12_234.txt.gz
Total_Precipitation_Accumulation
0.06 0.03 0.02 0.01 0.01 0.09 0.10 0.07 0.06 0.09 0.09 0.08 0.05 0.04 0.00 0.00 0.00 0.00 0.00 0.00 0.00 0.00
0.23 0.09 0.04 0.03 0.04 0.14 0.22 0.16 0.12 0.10 0.08 0.06 0.03 0.01 0.01 0.00 0.00 0.00 0.00 0.00 0.00 0.00
0.33 0.42 0.18 0.11 0.16 0.19 0.24 0.26 0.20 0.14 0.11 0.06 0.03 0.01 0.00 0.00 0.00 0.00 0.00 0.00 0.00 0.00
0.34 0.76 0.58 0.33 0.12 0.26 0.34 0.29 0.20 0.13 0.10 0.07 0.04 0.01 0.00 0.00 0.00 0.00 0.00 0.00 0.00 0.00
0.26 0.64 0.86 0.74 0.41 0.27 0.41 0.37 0.25 0.14 0.08 0.04 0.03 0.02 0.00 0.00 0.00 0.00 0.00 0.00 0.00 0.00
0.13 0.30 0.75 0.68 0.73 0.38 0.36 0.48 0.32 0.17 0.07 0.03 0.01 0.01 0.00 0.00 0.00 0.00 0.00 0.00 0.00 0.00
0.08 0.11 0.26 0.54 0.59 0.69 0.40 0.48 0.38 0.18 0.13 0.04 0.01 0.00 0.00 0.00 0.00 0.00 0.00 0.00 0.00 0.00
0.07 0.07 0.08 0.16 0.34 0.62 0.57 0.40 0.66 0.46 0.20 0.12 0.06 0.02 0.00 0.00 0.00 0.00 0.00 0.00 0.00 0.00
0.05 0.06 0.06 0.07 0.13 0.26 0.60 0.57 0.52 0.73 0.52 0.24 0.11 0.10 0.04 0.00 0.00 0.00 0.00 0.00 0.00 0.00
0.03 0.03 0.04 0.05 0.06 0.11 0.18 0.38 0.57 0.51 0.51 0.51 0.30 0.20 0.15 0.04 0.00 0.00 0.00 0.00 0.00 0.00
0.05 0.06 0.05 0.06 0.06 0.09 0.10 0.11 0.30 0.40 0.34 0.35 0.37 0.37 0.26 0.12 0.04 0.01 0.01 0.01 0.00 0.00
0.08 0.09 0.10 0.10 0.06 0.08 0.11 0.12 0.16 0.21 0.24 0.24 0.25 0.32 0.31 0.21 0.13 0.08 0.06 0.03 0.02 0.02
0.08 0.16 0.17 0.20 0.23 0.18 0.16 0.23 0.18 0.21 0.23 0.26 0.27 0.39 0.27 0.20 0.14 0.12 0.11 0.08 0.05 0.04
0.00 0.01 0.03 0.07 0.13 0.21 0.23 0.22 0.27 0.33 0.39 0.34 0.40 0.41 0.33 0.27 0.21 0.16 0.13 0.14 0.11 0.06

GFSNIL_prec_precacc12_237.txt.gz
Total_Precipitation_Accumulation
0.06 0.03 0.02 0.01 0.01 0.09 0.10 0.07 0.06 0.09 0.09 0.08 0.05 0.05 0.02 0.02 0.02 0.01 0.00 0.00 0.00 0.00
0.21 0.09 0.04 0.03 0.04 0.14 0.22 0.16 0.12 0.10 0.09 0.06 0.04 0.02 0.02 0.01 0.01 0.00 0.00 0.00 0.00 0.00
0.26 0.42 0.18 0.11 0.16 0.20 0.26 0.27 0.22 0.17 0.16 0.13 0.07 0.07 0.03 0.01 0.01 0.00 0.00 0.00 0.00 0.00
0.25 0.72 0.56 0.33 0.13 0.27 0.38 0.37 0.31 0.25 0.21 0.17 0.17 0.13 0.14 0.07 0.03 0.02 0.00 0.00 0.00 0.00
0.23 0.55 0.78 0.70 0.42 0.30 0.47 0.45 0.36 0.33 0.29 0.24 0.20 0.16 0.15 0.12 0.04 0.01 0.00 0.00 0.00 0.00
0.11 0.27 0.70 0.63 0.73 0.45 0.47 0.59 0.47 0.38 0.29 0.24 0.22 0.22 0.16 0.11 0.04 0.01 0.00 0.00 0.00 0.00
0.06 0.09 0.23 0.51 0.58 0.72 0.46 0.59 0.53 0.36 0.32 0.22 0.19 0.20 0.19 0.14 0.08 0.04 0.02 0.00 0.00 0.00
0.05 0.05 0.07 0.14 0.28 0.50 0.55 0.56 0.88 0.71 0.44 0.33 0.24 0.18 0.17 0.13 0.09 0.02 0.00 0.00 0.00 0.00
0.04 0.05 0.04 0.06 0.11 0.20 0.42 0.50 0.63 0.96 0.76 0.43 0.29 0.26 0.18 0.10 0.06 0.02 0.00 0.00 0.00 0.00
0.03 0.02 0.03 0.04 0.05 0.11 0.18 0.34 0.59 0.65 0.71 0.71 0.46 0.34 0.26 0.14 0.05 0.01 0.00 0.00 0.00 0.00
0.02 0.04 0.02 0.03 0.04 0.07 0.09 0.12 0.29 0.39 0.39 0.52 0.54 0.50 0.38 0.25 0.11 0.01 0.00 0.00 0.00 0.00
0.00 0.02 0.06 0.06 0.04 0.07 0.09 0.10 0.13 0.23 0.35 0.31 0.36 0.47 0.43 0.34 0.27 0.12 0.02 0.01 0.01 0.01
0.00 0.01 0.03 0.09 0.17 0.15 0.14 0.21 0.15 0.16 0.22 0.36 0.36 0.52 0.33 0.24 0.22 0.21 0.15 0.07 0.04 0.02
0.00 0.00 0.01 0.03 0.06 0.11 0.14 0.12 0.20 0.27 0.28 0.28 0.38 0.33 0.37 0.34 0.27 0.22 0.18 0.17 0.13 0.06

GFSNIL_prec_precacc12_240.txt.gz
Total_Precipitation_Accumulation
0.03 0.02 0.01 0.01 0.01 0.05 0.07 0.06 0.06 0.09 0.10 0.08 0.06 0.07 0.03 0.04 0.03 0.01 0.00 0.00 0.01 0.01
0.10 0.08 0.04 0.03 0.04 0.12 0.18 0.15 0.11 0.10 0.09 0.06 0.04 0.03 0.03 0.02 0.01 0.01 0.00 0.00 0.00 0.00
0.20 0.24 0.13 0.12 0.17 0.20 0.24 0.24 0.21 0.17 0.16 0.13 0.07 0.07 0.04 0.03 0.02 0.01 0.01 0.00 0.00 0.00
0.22 0.54 0.44 0.32 0.14 0.28 0.37 0.34 0.30 0.25 0.21 0.17 0.17 0.14 0.16 0.09 0.05 0.04 0.03 0.01 0.00 0.00
0.21 0.31 0.59 0.66 0.43 0.33 0.48 0.45 0.36 0.33 0.29 0.24 0.20 0.17 0.20 0.20 0.13 0.06 0.06 0.05 0.02 0.01
0.09 0.22 0.47 0.52 0.57 0.43 0.45 0.57 0.47 0.39 0.30 0.26 0.25 0.24 0.18 0.16 0.15 0.11 0.07 0.06 0.06 0.03
0.04 0.07 0.21 0.47 0.47 0.56 0.40 0.50 0.48 0.34 0.32 0.26 0.23 0.24 0.25 0.21 0.19 0.20 0.17 0.11 0.08 0.07
0.03 0.04 0.05 0.13 0.26 0.44 0.46 0.51 0.73 0.65 0.45 0.36 0.30 0.24 0.24 0.25 0.23 0.19 0.21 0.19 0.14 0.10
0.00 0.03 0.04 0.06 0.11 0.17 0.32 0.42 0.62 0.86 0.70 0.47 0.37 0.37 0.28 0.22 0.23 0.21 0.17 0.18 0.17 0.11
0.00 0.00 0.01 0.03 0.05 0.10 0.17 0.31 0.52 0.67 0.68 0.67 0.51 0.48 0.45 0.31 0.21 0.20 0.18 0.16 0.13 0.08
0.00 0.00 0.00 0.01 0.03 0.05 0.08 0.11 0.28 0.42 0.39 0.53 0.58 0.57 0.53 0.42 0.23 0.13 0.12 0.12 0.10 0.07
0.00 0.00 0.00 0.01 0.02 0.05 0.07 0.07 0.12 0.25 0.36 0.29 0.35 0.53 0.54 0.49 0.37 0.22 0.08 0.05 0.06 0.04
0.00 0.00 0.00 0.01 0.04 0.07 0.10 0.18 0.12 0.13 0.22 0.37 0.36 0.56 0.37 0.31 0.29 0.31 0.25 0.09 0.02 0.01
0.00 0.00 0.00 0.01 0.01 0.04 0.08 0.07 0.16 0.22 0.23 0.29 0.40 0.37 0.39 0.37 0.26 0.21 0.24 0.26 0.17 0.06

GFSNIL_prec_precacc12_243.txt.gz
Total_Precipitation_Accumulation
0.01 0.01 0.01 0.01 0.00 0.01 0.03 0.03 0.02 0.03 0.09 0.09 0.08 0.11 0.05 0.05 0.04 0.02 0.01 0.01 0.01 0.01
0.02 0.02 0.03 0.02 0.03 0.07 0.11 0.11 0.07 0.07 0.08 0.06 0.04 0.06 0.05 0.02 0.01 0.01 0.01 0.00 0.00 0.00
0.02 0.02 0.06 0.11 0.16 0.16 0.17 0.18 0.18 0.14 0.15 0.13 0.07 0.07 0.05 0.04 0.03 0.02 0.01 0.00 0.00 0.00
0.03 0.08 0.11 0.06 0.11 0.27 0.34 0.31 0.27 0.23 0.20 0.17 0.17 0.14 0.16 0.10 0.06 0.06 0.04 0.01 0.01 0.00
0.08 0.16 0.24 0.33 0.27 0.28 0.44 0.38 0.33 0.32 0.28 0.24 0.20 0.17 0.20 0.20 0.13 0.07 0.07 0.06 0.03 0.02
0.02 0.11 0.20 0.31 0.40 0.30 0.40 0.51 0.45 0.37 0.30 0.26 0.25 0.24 0.18 0.16 0.15 0.11 0.08 0.07 0.07 0.05
0.00 0.02 0.11 0.33 0.34 0.34 0.31 0.42 0.45 0.32 0.29 0.25 0.23 0.25 0.26 0.23 0.20 0.21 0.17 0.12 0.09 0.08
0.00 0.01 0.02 0.08 0.21 0.32 0.31 0.39 0.50 0.47 0.37 0.30 0.28 0.25 0.25 0.26 0.25 0.22 0.25 0.22 0.17 0.15
0.00 0.00 0.00 0.02 0.07 0.12 0.23 0.33 0.46 0.61 0.52 0.37 0.32 0.38 0.31 0.24 0.26 0.25 0.22 0.24 0.22 0.18
0.00 0.00 0.00 0.00 0.01 0.07 0.13 0.25 0.46 0.60 0.58 0.52 0.42 0.47 0.46 0.36 0.26 0.24 0.22 0.21 0.20 0.17
0.00 0.00 0.00 0.00 0.00 0.03 0.06 0.10 0.27 0.40 0.37 0.49 0.50 0.50 0.48 0.43 0.27 0.16 0.15 0.16 0.18 0.17
0.00 0.00 0.00 0.00 0.00 0.01 0.04 0.06 0.12 0.24 0.35 0.29 0.35 0.52 0.52 0.48 0.38 0.27 0.14 0.11 0.14 0.17
0.00 0.00 0.00 0.00 0.01 0.02 0.02 0.04 0.07 0.11 0.20 0.34 0.35 0.52 0.36 0.31 0.31 0.36 0.31 0.16 0.11 0.15
0.00 0.00 0.00 0.00 0.00 0.01 0.03 0.02 0.08 0.14 0.17 0.25 0.39 0.37 0.39 0.39 0.27 0.24 0.29 0.30 0.19 0.10

GFSNIL_prec_precacc12_249.txt.gz
Total_Precipitation_Accumulation
0.11 0.09 0.08 0.02 0.02 0.01 0.00 0.00 0.00 0.01 0.03 0.06 0.08 0.11 0.08 0.06 0.05 0.04 0.04 0.03 0.02 0.02
0.07 0.10 0.08 0.04 0.02 0.01 0.00 0.00 0.00 0.00 0.00 0.03 0.05 0.11 0.09 0.06 0.03 0.03 0.03 0.02 0.02 0.02
0.04 0.06 0.07 0.03 0.01 0.01 0.00 0.00 0.00 0.00 0.00 0.01 0.03 0.06 0.07 0.08 0.06 0.04 0.03 0.03 0.03 0.02
0.06 0.03 0.03 0.03 0.01 0.02 0.02 0.02 0.01 0.01 0.01 0.00 0.00 0.01 0.03 0.05 0.06 0.07 0.06 0.04 0.04 0.04
0.06 0.02 0.01 0.01 0.04 0.03 0.02 0.02 0.02 0.02 0.01 0.01 0.01 0.01 0.05 0.09 0.10 0.08 0.09 0.08 0.05 0.04
0.04 0.01 0.01 0.01 0.01 0.00 0.01 0.01 0.02 0.04 0.06 0.06 0.05 0.05 0.03 0.06 0.12 0.11 0.08 0.08 0.08 0.06
0.07 0.03 0.01 0.01 0.00 0.00 0.01 0.01 0.00 0.02 0.04 0.07 0.08 0.09 0.10 0.11 0.13 0.18 0.16 0.12 0.09 0.08
0.02 0.02 0.01 0.00 0.01 0.00 0.01 0.02 0.02 0.02 0.03 0.05 0.09 0.11 0.12 0.15 0.18 0.21 0.26 0.24 0.19 0.16
0.00 0.00 0.00 0.00 0.00 0.00 0.02 0.05 0.06 0.04 0.04 0.07 0.09 0.19 0.18 0.18 0.21 0.23 0.23 0.24 0.23 0.20
0.00 0.00 0.00 0.00 0.00 0.00 0.00 0.01 0.03 0.07 0.05 0.04 0.09 0.19 0.23 0.23 0.22 0.24 0.23 0.22 0.21 0.18
0.00 0.00 0.00 0.00 0.00 0.00 0.00 0.00 0.02 0.07 0.03 0.04 0.06 0.11 0.17 0.20 0.18 0.16 0.16 0.17 0.19 0.19
0.00 0.00 0.00 0.00 0.00 0.00 0.00 0.00 0.00 0.04 0.05 0.03 0.04 0.10 0.14 0.17 0.12 0.15 0.11 0.11 0.15 0.18
0.00 0.00 0.00 0.00 0.00 0.00 0.00 0.00 0.00 0.00 0.02 0.05 0.03 0.07 0.07 0.10 0.11 0.17 0.18 0.12 0.11 0.17
0.00 0.00 0.00 0.00 0.00 0.00 0.00 0.00 0.00 0.00 0.01 0.06 0.07 0.08 0.07 0.10 0.08 0.12 0.21 0.23 0.14 0.10